Theta_e
339 338 337 337 336 336 337 337 336 335 334 334 333 332 330 330 330 330 328 327 328 327 326 325 325 324 323 323 322 321 321 320 320 318 318 317 316 316 320 325 328 330 332 333 334 335 334 334 334 334 337 336 333 333 335 335 335 334 335 335 335 334 333 330 325 318 314 316 322 326 328 331 332 332 332 330 330 333 335 336 336 335 334 334 334
339 338 337 337 337 337 335 336 336 335 335 334 333 332 329 328 327 326 325 324 324 323 322 321 321 321 321 321 320 319 320 319 318 317 316 316 316 320 325 328 329 331 332 333 334 334 333 333 334 336 336 334 333 334 334 335 334 334 334 334 334 334 332 329 327 325 322 321 323 325 326 328 329 330 329 326 327 332 335 336 336 335 334 333 332
338 336 336 336 336 336 335 335 336 336 335 333 331 330 328 327 326 325 325 324 323 321 319 319 318 318 317 316 316 317 317 318 317 316 317 320 323 326 328 329 329 331 332 333 333 333 333 333 334 335 335 334 333 333 334 334 334 334 333 333 334 333 331 328 328 329 328 328 327 325 323 323 325 327 327 327 329 333 335 336 335 334 333 332 329
336 335 335 336 336 336 335 335 335 335 335 332 329 328 328 327 327 326 326 326 324 322 318 316 316 316 317 318 318 317 317 318 318 319 326 331 332 332 332 331 331 331 333 335 334 333 332 332 333 335 335 334 333 333 333 334 333 333 333 333 333 333 331 330 331 332 333 334 333 331 325 321 319 322 326 328 332 333 333 333 331 330 330 328 326
335 334 334 335 334 334 335 334 333 334 333 331 329 328 328 327 327 327 328 328 327 323 318 316 317 322 325 324 321 318 318 319 321 327 333 335 335 335 334 334 334 333 334 334 334 333 332 332 332 333 334 334 333 332 333 333 333 333 333 332 332 332 331 332 334 335 336 337 336 335 330 326 320 317 320 325 327 328 328 326 325 326 326 325 325
334 333 333 334 334 334 334 334 332 332 332 330 329 328 328 327 327 328 329 329 329 324 319 319 323 329 330 325 319 318 320 322 327 332 334 334 335 335 335 335 334 333 333 333 333 332 332 332 331 332 333 334 332 331 332 332 333 332 332 332 332 331 331 331 332 335 337 337 337 337 335 331 326 319 315 317 318 320 322 322 323 325 325 325 326
333 332 333 333 334 334 334 333 332 332 331 331 329 328 327 327 327 327 329 330 330 327 322 320 325 330 330 326 322 323 325 328 333 335 334 335 335 336 336 335 334 333 332 332 331 330 331 331 332 333 333 333 332 331 332 332 332 331 331 331 332 331 331 329 330 335 336 336 337 337 336 335 332 327 319 315 314 316 321 324 325 327 328 328 328
332 332 332 333 334 334 333 333 333 332 331 331 329 328 328 329 329 329 330 331 331 330 326 321 323 328 330 327 327 329 330 332 335 335 334 334 334 335 335 335 334 333 333 331 329 329 329 328 330 330 330 330 329 329 329 329 329 328 328 328 330 331 329 328 331 334 335 335 336 336 336 336 334 333 329 321 317 319 324 327 328 330 331 330 329
332 331 333 333 333 332 332 332 333 333 331 330 329 330 331 332 333 333 333 333 331 330 328 322 322 328 329 328 329 332 333 334 334 334 333 333 333 334 334 334 334 334 334 331 329 329 330 329 329 328 327 324 323 324 323 323 323 322 322 323 325 326 326 330 333 334 335 335 335 337 336 336 334 333 334 329 324 326 329 330 331 332 332 331 330
330 331 333 332 332 332 332 333 333 333 333 332 331 332 333 333 333 332 332 332 331 329 328 324 322 327 330 328 328 332 333 332 333 333 332 332 332 333 335 335 335 335 334 332 330 330 333 334 334 333 330 325 322 322 322 321 322 321 320 319 319 323 329 333 334 334 335 336 336 337 336 335 333 333 334 332 330 331 333 332 332 332 333 332 331
329 331 332 332 332 333 334 334 334 334 333 332 331 330 330 330 330 330 330 330 329 329 329 324 321 324 329 330 328 331 332 331 331 332 330 330 332 334 335 335 335 336 335 334 331 329 333 336 336 336 334 330 327 325 323 323 323 322 322 321 322 327 334 335 335 334 335 336 336 336 335 333 331 332 334 334 334 334 334 333 333 332 333 332 332
329 331 332 332 330 329 329 329 329 330 330 330 328 327 327 328 328 327 327 328 327 328 329 326 322 322 327 330 329 330 332 332 331 330 330 329 331 333 335 335 335 335 335 334 333 330 331 336 336 335 335 334 332 329 325 324 324 324 324 325 328 331 334 335 336 335 335 335 336 335 332 330 329 330 333 334 334 334 334 333 333 333 333 332 332
328 329 329 328 326 324 324 324 324 325 326 327 326 325 325 326 325 324 322 322 322 324 328 329 325 322 324 328 329 328 331 334 334 332 331 330 330 330 332 334 334 334 334 334 333 331 331 334 335 334 334 334 334 333 329 328 328 326 324 325 329 332 333 335 335 334 335 335 336 334 329 328 327 329 333 334 334 333 333 333 334 333 333 333 333
327 326 326 325 324 324 324 324 324 324 324 325 325 325 326 326 325 322 321 320 318 319 323 326 327 325 324 326 329 327 328 332 334 334 333 333 331 329 328 330 331 331 331 332 332 331 330 332 334 334 334 333 334 334 332 332 331 328 325 325 328 331 332 335 335 332 334 335 336 332 326 326 327 329 333 334 334 333 333 334 334 333 333 333 333
328 327 326 324 324 324 324 324 324 324 324 324 323 323 323 324 324 321 321 323 320 319 318 321 325 328 328 326 327 329 328 328 333 334 334 335 334 331 329 327 326 327 328 329 330 331 329 331 334 334 332 333 333 333 333 331 330 328 326 325 327 330 332 333 335 333 332 333 336 334 326 323 325 328 332 334 334 333 333 334 334 334 333 333 332
330 329 327 326 325 324 323 322 322 322 322 323 322 321 320 320 320 318 319 323 323 322 322 323 323 323 325 324 324 328 328 326 329 334 335 335 335 333 332 328 325 324 325 326 326 328 329 329 332 333 332 332 332 332 332 331 329 328 328 328 328 331 332 332 334 335 333 331 334 335 329 323 322 325 330 333 334 334 333 334 334 334 333 332 331
331 329 328 328 328 326 324 324 323 323 323 322 323 321 320 318 317 317 317 319 322 324 324 328 329 325 323 322 319 321 326 326 327 332 334 335 335 333 334 332 329 325 323 323 323 324 327 329 331 332 332 332 332 332 333 332 332 331 332 332 331 332 332 331 333 334 332 330 332 335 331 325 321 321 327 333 334 334 333 334 334 333 332 331 330
331 329 329 328 328 327 327 328 326 325 326 325 324 323 321 320 319 319 318 316 319 324 324 325 331 333 330 327 324 319 321 324 325 331 333 334 335 334 334 334 332 329 325 323 322 322 324 327 330 332 331 331 331 332 333 333 333 333 333 333 332 332 332 332 333 334 332 330 330 334 331 326 323 319 324 331 333 334 333 333 333 333 332 331 331
332 331 330 329 329 329 329 330 328 328 329 328 327 325 323 324 323 321 320 318 316 320 323 322 325 332 332 331 333 328 322 320 322 329 332 333 334 334 333 333 332 331 329 325 323 322 323 325 329 331 331 330 331 331 332 333 333 333 333 333 332 332 333 333 334 335 333 330 330 334 332 327 324 320 323 331 333 333 333 332 333 333 332 332 331
331 330 328 328 329 330 330 329 329 329 330 329 328 328 327 327 325 323 321 320 318 318 321 324 323 327 328 329 333 333 329 324 321 326 331 332 333 333 333 332 332 332 331 329 325 323 323 323 326 329 329 329 330 331 332 332 332 332 332 333 333 332 333 333 334 334 333 331 331 334 332 328 325 319 323 330 332 333 333 332 332 333 332 332 331
330 330 327 326 326 327 328 327 325 326 328 327 327 328 327 328 328 326 322 321 322 322 323 326 324 324 325 327 331 331 332 330 326 328 330 331 332 332 332 333 333 332 332 331 329 325 323 323 323 326 327 328 329 329 331 332 331 332 332 333 333 333 333 333 334 333 333 332 331 333 332 328 325 320 322 329 333 333 333 332 332 333 332 332 331
326 324 323 321 318 318 318 319 318 320 322 323 326 326 325 326 327 327 326 325 326 327 328 327 324 324 324 326 330 330 331 329 327 330 330 329 331 331 332 332 333 333 332 332 332 329 325 324 323 323 325 327 327 328 330 331 331 331 332 333 333 333 333 334 334 333 334 332 330 332 331 328 325 321 321 326 331 333 332 332 332 332 331 331 330
322 316 315 314 313 312 312 313 313 314 316 319 321 320 321 325 326 323 325 327 328 329 331 330 328 327 326 326 329 328 330 331 327 328 328 329 330 330 331 332 332 332 333 332 332 332 328 325 325 323 323 326 326 327 330 330 330 331 332 333 333 333 333 334 334 333 333 333 332 332 330 328 324 321 321 324 330 332 332 331 331 331 331 330 329
321 315 313 313 313 313 314 314 314 314 315 317 315 313 317 326 330 325 322 325 328 330 330 332 331 328 326 325 325 324 328 331 329 327 327 328 329 330 330 331 331 332 333 333 332 333 330 327 326 324 324 325 326 329 332 331 330 331 332 332 333 333 333 334 334 333 333 333 333 331 329 328 325 322 321 323 327 331 332 331 331 331 330 329 328
319 314 314 314 315 315 315 315 315 315 315 316 316 316 315 319 328 324 321 324 325 329 330 331 330 328 329 326 324 326 327 328 328 328 328 327 328 329 328 328 330 331 332 332 332 333 332 329 327 326 325 325 328 333 335 334 333 332 331 332 333 333 333 335 334 333 334 333 331 329 329 327 325 323 321 322 325 329 330 330 331 330 329 329 328
317 314 315 314 315 315 315 315 315 316 316 316 317 319 316 314 318 316 320 327 325 328 332 330 329 329 331 330 327 329 328 328 328 327 327 326 326 326 326 327 328 329 330 331 332 333 334 332 330 329 328 329 333 335 335 335 334 333 332 333 333 333 335 335 334 333 333 334 330 328 329 328 326 323 321 322 323 326 328 329 329 329 329 328 328
317 314 315 314 315 315 315 316 316 317 317 317 316 316 316 315 315 313 317 321 321 328 333 330 328 328 330 330 329 329 330 329 328 326 325 326 325 325 325 326 326 328 330 331 332 332 334 336 334 333 333 334 335 335 336 335 334 334 333 333 333 333 335 335 334 333 332 333 331 328 329 328 326 324 324 324 323 324 326 327 327 328 328 327 327
318 314 314 315 315 316 316 317 317 317 317 316 316 315 315 315 315 315 315 313 317 326 330 328 328 328 328 329 329 330 331 330 328 325 325 325 325 325 327 327 326 327 330 331 332 334 335 336 336 335 335 335 336 336 335 334 334 335 334 333 334 334 336 335 333 333 332 332 331 327 327 328 326 324 324 327 326 325 324 324 324 325 326 326 326
319 315 314 315 316 316 316 317 317 316 316 315 315 315 314 315 314 315 315 314 315 318 322 327 329 328 328 329 329 329 330 330 328 327 326 324 323 324 326 328 328 327 329 331 333 334 334 334 335 335 336 335 335 336 335 334 334 334 334 334 334 334 335 334 332 332 331 332 331 326 326 327 326 324 324 327 328 327 326 324 323 324 325 325 325
320 317 315 316 316 317 317 317 317 316 316 315 315 315 314 314 314 317 320 317 314 316 322 329 329 328 328 329 329 328 328 328 328 328 327 324 322 323 325 327 329 327 327 329 331 332 332 334 335 336 337 335 334 336 337 335 334 334 335 335 334 334 335 333 332 333 331 332 332 326 324 326 326 324 323 326 327 327 327 327 325 323 323 325 324
321 318 316 317 316 317 317 317 317 316 316 316 315 314 313 313 314 319 323 320 319 323 325 328 329 329 328 328 329 329 329 328 328 329 328 326 324 325 325 327 328 326 326 327 329 330 331 334 336 337 337 335 334 335 336 335 334 334 334 335 334 333 334 332 331 332 331 332 333 327 322 323 325 324 324 326 327 327 327 327 327 325 323 323 324
319 318 316 317 317 317 317 317 317 316 316 316 314 314 312 313 315 319 323 322 323 326 327 327 327 327 327 328 328 328 329 328 328 329 329 329 328 327 326 326 327 327 327 329 330 331 333 334 335 336 336 336 335 335 336 336 335 335 334 334 334 332 332 332 331 333 332 332 334 331 323 321 324 324 323 325 326 327 328 327 328 327 326 324 324
316 317 317 318 318 318 318 317 316 316 316 315 315 314 310 311 314 315 318 319 322 326 326 327 326 325 327 328 328 327 328 329 329 329 330 331 330 330 328 327 327 328 331 332 331 332 334 334 334 335 336 337 336 335 336 337 337 336 336 335 334 333 332 332 331 332 332 332 335 334 325 320 324 324 323 324 326 327 327 327 327 328 329 328 326
316 317 318 318 318 318 318 317 316 315 316 315 314 313 311 311 311 311 312 314 322 326 325 326 326 325 326 328 328 328 328 329 330 330 330 331 330 330 329 329 329 329 332 333 333 334 334 334 335 335 336 337 336 336 336 337 337 336 335 334 333 334 333 332 331 332 332 332 335 335 328 321 322 324 323 323 324 326 327 327 326 327 329 329 329
317 318 319 319 319 319 318 316 315 315 315 314 314 312 311 312 312 314 313 313 321 324 324 326 325 325 326 326 328 328 328 330 330 330 330 331 330 330 330 330 329 330 332 333 333 333 333 333 334 335 335 335 336 337 336 335 336 335 334 333 333 334 334 332 331 332 332 331 333 335 333 327 324 323 323 323 323 325 327 327 327 326 328 329 330
318 319 319 319 320 319 318 316 315 315 314 312 313 312 312 312 313 317 316 315 320 323 323 324 324 325 325 325 326 326 327 329 329 330 330 331 331 330 331 330 330 330 332 333 333 332 332 333 334 334 333 332 335 336 335 335 335 333 333 334 334 334 334 333 331 331 332 331 332 335 336 334 330 326 324 322 322 324 327 327 327 327 327 328 330
320 319 319 320 320 319 318 316 315 314 313 312 311 312 312 312 314 318 318 318 321 322 322 323 323 325 325 325 325 324 325 326 328 329 329 330 330 330 331 331 331 331 331 332 332 332 333 333 333 334 333 333 334 335 335 335 335 334 333 333 335 334 334 335 332 330 332 332 331 333 336 336 335 333 329 323 320 323 326 327 327 328 327 328 329
319 319 320 320 320 319 317 315 314 314 313 312 310 310 312 311 315 319 318 319 320 320 322 322 322 323 323 324 323 323 323 323 326 327 328 329 330 331 331 331 331 331 331 331 332 331 332 333 332 332 334 333 333 333 334 335 335 335 334 331 332 334 334 334 333 330 332 333 332 332 335 336 336 336 335 329 322 321 324 326 327 328 329 329 329
318 319 320 321 320 320 318 314 313 313 313 313 310 310 311 310 315 318 317 318 319 319 320 321 321 322 322 322 322 323 322 322 324 325 326 327 328 329 330 331 331 331 331 331 331 332 332 332 332 332 333 332 332 333 334 334 335 335 334 333 332 333 333 334 333 331 331 332 333 331 333 335 335 336 336 334 329 324 322 324 326 328 329 329 329
318 320 320 322 323 321 319 315 314 313 312 313 311 310 312 312 314 316 316 318 318 318 319 319 320 320 321 321 320 321 321 322 322 322 324 324 325 326 328 330 330 330 331 331 331 331 331 332 332 332 332 332 333 333 332 332 334 334 334 333 333 331 331 333 334 333 331 332 333 332 332 333 335 336 336 335 334 331 326 323 324 326 328 330 329
319 320 320 322 323 322 320 317 315 314 312 313 312 311 314 314 314 315 316 318 317 318 318 318 319 318 319 319 319 320 320 320 321 321 321 321 322 323 324 327 329 330 331 331 331 331 331 331 332 333 332 332 333 333 331 330 331 333 333 332 332 331 330 332 333 334 333 332 332 332 332 333 334 335 336 335 334 334 332 328 326 324 325 328 328
320 320 323 323 322 322 320 317 317 315 312 312 312 313 314 315 315 315 317 317 317 317 317 317 318 318 318 318 318 319 320 320 320 321 321 321 321 321 321 322 325 328 329 330 330 330 330 331 331 332 333 332 332 332 332 331 331 331 332 332 332 331 330 330 332 334 334 333 332 333 333 332 333 333 334 335 334 335 335 333 330 327 325 326 327
322 322 325 324 322 323 321 318 317 316 313 312 312 313 314 314 315 315 316 317 316 317 317 317 317 317 318 318 319 319 320 319 319 320 321 322 322 322 322 322 322 324 327 329 330 330 330 331 331 331 331 332 332 332 332 331 332 332 332 333 332 332 330 330 332 333 334 333 332 333 333 332 332 333 333 334 333 334 335 335 334 332 329 328 328
325 324 325 324 323 324 321 319 319 316 314 312 312 313 313 314 315 314 315 316 316 316 316 316 316 316 317 317 318 318 319 318 318 319 320 321 322 322 323 323 322 322 324 326 327 329 330 331 331 331 331 332 331 331 332 332 332 332 332 333 333 333 333 332 332 333 334 334 333 333 333 332 333 333 333 333 333 333 334 334 335 335 334 333 332
326 326 325 324 324 325 322 320 321 318 315 313 312 313 313 313 314 314 315 316 316 316 316 316 315 315 316 316 316 317 317 317 317 318 319 320 320 321 322 322 321 321 322 324 325 327 329 330 331 331 331 332 331 331 332 332 332 332 332 332 332 333 334 333 332 332 333 334 333 332 332 333 333 333 333 333 333 333 333 333 333 333 334 334 334
326 326 326 325 325 325 323 321 322 320 317 314 313 313 312 313 314 314 315 316 315 315 315 315 315 316 316 315 315 316 316 316 317 318 318 319 320 321 321 321 321 320 320 322 323 325 327 328 329 330 330 331 331 331 332 332 332 332 332 332 332 331 332 333 332 331 333 334 333 332 332 332 333 333 333 333 333 333 333 333 333 332 332 333 333
325 325 326 326 324 325 323 321 322 321 318 316 314 313 313 313 315 314 315 316 315 315 315 314 315 316 316 315 315 316 317 317 317 318 318 319 320 321 321 321 321 320 320 320 321 324 326 327 328 330 330 330 331 331 331 332 332 332 332 332 332 331 331 331 331 331 332 333 334 333 333 332 332 332 333 333 333 333 333 333 333 333 332 331 331
325 325 326 326 324 324 324 322 322 321 319 317 315 315 313 313 314 314 314 315 315 314 314 314 315 316 316 315 315 317 318 317 317 318 318 319 320 322 322 321 321 321 320 319 321 324 327 327 328 330 330 330 330 330 331 332 332 332 332 332 332 331 331 331 331 332 332 333 332 332 333 332 332 332 331 332 332 333 333 333 333 333 334 333 331
324 324 326 325 324 324 324 323 322 322 320 318 316 315 314 314 315 314 314 315 315 314 314 315 315 315 315 315 316 318 318 317 317 317 318 319 321 322 322 321 322 322 322 321 321 324 327 327 328 329 330 330 330 330 330 331 331 331 332 331 331 331 332 332 332 332 332 332 330 329 331 332 332 331 331 330 330 331 332 333 334 334 334 334 333
324 324 325 325 324 324 324 324 322 322 322 319 317 316 315 315 314 314 314 315 315 314 314 315 315 315 315 315 316 318 318 319 318 317 317 319 321 321 321 321 322 322 323 322 322 322 324 325 326 327 328 329 329 330 330 330 331 330 330 331 331 331 332 332 332 332 332 332 331 329 329 331 332 332 331 330 330 330 331 332 334 334 334 335 334
324 324 325 325 325 325 325 324 323 322 322 320 318 317 316 315 314 315 315 315 315 315 314 314 315 315 315 315 316 318 318 320 319 318 317 319 319 320 321 321 321 322 322 323 322 322 323 324 326 327 327 328 329 329 329 329 329 330 331 331 331 331 332 332 332 332 332 332 331 328 328 329 330 331 331 331 332 331 330 332 333 334 334 334 335
Wind_Speed
14 13 13 11 11 11 11 12 11 10 10 10 12 13 13 13 12 10 10 11 10 9 9 8 8 8 7 6 5 5 5 5 6 6 6 6 5 6 7 7 7 6 5 4 4 4 4 4 4 5 5 6 7 8 9 9 9 9 9 10 10 11 11 11 12 11 11 11 10 10 11 10 10 10 10 10 11 11 10 12 14 14 15 15 14
15 15 15 13 14 13 12 13 11 11 11 11 13 13 13 13 12 10 10 10 9 8 8 8 7 7 6 5 4 3 4 4 5 6 6 6 7 8 8 7 6 6 5 5 4 5 5 5 5 5 6 7 7 9 10 9 9 10 10 10 10 11 11 12 13 13 13 12 11 10 10 9 9 9 9 10 10 10 10 11 12 13 13 13 11
19 18 17 15 15 14 12 12 12 11 12 14 15 14 12 11 11 10 10 9 9 8 8 7 6 6 5 4 4 3 3 4 6 7 8 8 9 9 9 7 6 6 6 5 5 5 5 6 6 6 7 7 8 9 10 10 10 10 10 11 11 11 12 12 13 14 14 13 13 12 10 8 8 8 9 10 10 10 10 10 10 10 11 10 10
22 21 18 17 16 15 13 11 12 11 12 14 15 14 12 11 10 10 10 10 9 8 8 7 6 5 5 5 4 3 3 5 8 9 10 10 10 10 9 8 7 7 7 6 5 5 6 6 6 7 8 8 8 10 10 10 11 11 11 11 11 11 12 13 13 13 12 11 12 11 10 8 7 8 8 10 11 10 10 9 8 8 9 9 9
20 22 19 17 16 15 13 12 12 12 11 13 13 12 12 11 10 10 10 9 9 9 8 7 6 6 6 6 5 5 6 8 10 10 10 10 9 9 9 8 8 7 7 7 6 5 6 6 6 7 7 8 9 10 11 11 11 12 12 12 11 11 12 12 13 12 11 10 10 9 9 8 7 8 8 8 9 9 8 8 8 9 9 10 11
19 21 19 17 15 14 13 13 13 12 11 11 11 11 11 10 9 9 8 9 9 8 8 8 7 7 7 7 6 7 9 9 10 10 9 9 8 8 8 7 8 7 7 6 6 5 6 6 6 6 7 8 9 10 11 11 11 11 12 11 11 11 12 12 12 12 11 9 9 7 6 8 8 8 8 8 7 7 8 9 10 11 11 11 13
22 21 18 18 16 14 13 13 12 11 10 10 9 9 9 9 8 7 7 7 8 8 7 7 8 7 7 7 7 9 9 9 9 9 8 8 8 7 7 7 7 7 6 6 6 5 6 6 6 7 7 8 9 10 11 11 11 10 10 10 10 9 10 10 10 10 9 8 7 5 5 7 8 9 9 8 7 7 9 11 11 12 13 13 14
22 19 17 18 17 16 14 13 12 10 10 9 9 8 8 8 7 6 6 6 7 7 6 6 7 6 7 7 8 9 7 7 7 8 7 7 7 6 6 6 6 6 6 6 6 6 7 7 7 7 7 8 8 9 10 10 10 9 8 8 8 8 8 10 12 12 10 7 6 5 5 6 7 9 9 9 10 9 11 13 13 13 13 13 13
20 19 18 19 18 16 14 13 12 11 10 9 8 8 7 7 7 7 6 6 6 6 6 6 6 6 6 7 7 7 6 5 6 6 6 7 6 6 5 5 5 5 6 6 6 7 8 8 8 7 7 8 8 9 9 10 9 9 8 8 7 8 10 11 12 13 10 5 5 6 6 6 7 8 9 10 12 12 12 13 14 13 13 13 13
20 20 18 18 17 15 14 13 12 11 11 11 10 9 8 8 8 8 7 6 6 7 6 5 5 5 5 6 5 5 6 5 5 5 5 6 6 5 5 5 5 4 5 6 6 6 7 7 8 8 8 8 9 10 10 10 10 10 9 9 9 11 13 13 12 12 9 6 5 6 7 7 7 8 9 10 11 12 12 12 13 13 12 12 12
21 21 19 17 16 15 15 13 12 11 11 10 9 9 9 9 9 9 8 7 6 6 6 4 4 4 3 4 4 4 6 6 5 4 4 5 5 5 5 5 5 4 4 6 6 5 5 6 7 8 8 8 9 9 10 11 10 11 11 11 12 13 14 14 14 10 10 9 6 6 7 8 7 8 9 9 10 10 12 12 11 12 11 12 12
23 22 20 19 18 17 15 13 12 11 10 9 8 8 8 9 9 9 8 7 6 6 5 4 3 3 2 3 3 3 4 5 5 4 4 4 4 4 4 4 4 4 4 5 5 4 4 4 6 8 8 8 8 9 10 10 10 11 11 12 12 13 13 14 13 7 8 8 8 8 7 7 6 7 9 9 10 10 11 12 11 11 11 12 13
22 20 18 18 17 15 13 12 11 10 10 9 8 8 7 7 8 9 9 8 7 5 4 3 3 3 2 2 2 3 2 4 5 4 4 4 3 3 4 4 4 4 3 3 4 4 4 4 5 7 7 7 8 9 10 10 9 10 11 11 11 13 14 13 10 4 4 6 7 8 7 7 7 7 9 9 10 10 11 12 12 11 12 14 15
19 18 17 17 15 12 11 10 9 9 9 10 11 11 10 8 8 10 10 10 9 6 4 2 1 2 2 1 1 2 1 2 3 4 3 3 3 3 2 3 4 4 3 3 3 3 4 5 6 6 6 7 8 8 9 9 8 9 10 10 11 14 15 14 9 3 1 4 5 6 6 7 7 7 9 10 10 10 11 13 13 13 14 16 17
19 18 17 15 13 12 11 11 10 9 9 10 11 13 13 12 11 12 11 9 10 8 5 2 1 1 1 1 0 1 1 2 2 3 4 3 3 3 3 2 2 3 3 3 3 4 5 5 6 5 5 6 7 7 8 8 8 9 9 10 11 10 12 13 10 3 2 2 4 4 5 6 7 7 8 10 10 11 12 13 14 14 15 17 18
18 18 16 14 13 12 12 11 11 10 8 7 7 10 12 13 13 13 13 9 8 8 6 5 2 1 0 1 1 1 0 1 1 3 3 3 3 2 3 2 1 2 4 4 4 4 5 6 6 5 5 6 6 6 7 7 7 8 8 8 8 7 10 14 13 4 2 1 2 4 5 6 7 7 7 9 11 12 13 14 14 16 17 17 18
16 15 14 13 11 10 10 10 9 7 5 4 4 5 7 9 11 13 14 12 9 7 5 6 4 3 2 2 2 1 1 0 1 2 2 3 2 2 2 1 1 0 2 4 4 5 6 7 7 6 5 5 5 6 7 7 7 6 6 7 5 6 10 13 12 5 2 1 2 5 6 6 6 7 7 9 12 12 13 15 15 17 17 18 18
14 13 12 11 9 8 7 8 6 4 3 2 2 1 2 4 5 8 12 13 12 9 6 5 4 4 5 6 5 2 1 1 1 3 2 2 2 2 1 0 1 1 1 2 4 5 7 8 8 7 6 5 6 6 6 6 6 5 5 6 5 7 9 11 10 4 3 2 2 5 6 6 6 6 7 9 11 13 14 16 17 17 17 17 17
12 11 11 10 8 8 5 5 4 3 2 2 2 1 2 3 5 5 7 10 12 11 9 6 4 4 6 7 5 4 2 0 2 3 3 2 3 3 2 1 1 2 2 2 3 4 6 7 8 7 6 5 6 6 6 5 5 4 4 5 5 6 8 10 9 3 4 3 4 4 6 6 6 6 8 9 12 13 15 17 18 18 17 17 15
13 11 10 10 8 8 7 5 5 5 3 2 2 1 3 4 4 5 5 7 9 10 8 6 5 5 5 5 4 4 3 1 1 4 4 3 4 3 3 2 1 2 2 2 3 4 5 6 7 7 7 6 7 6 6 5 4 4 4 4 5 6 7 10 8 4 5 5 5 4 6 5 5 6 8 10 12 14 16 17 19 18 17 16 15
13 13 11 9 8 8 7 6 6 6 5 4 4 3 3 4 4 4 5 5 8 9 7 6 5 4 4 4 5 4 3 2 1 3 4 3 3 4 4 3 3 3 3 3 3 3 4 5 6 7 8 8 8 7 6 6 5 4 4 4 5 6 7 9 8 4 5 4 4 5 6 5 5 6 9 11 13 15 16 17 18 18 17 16 14
13 15 13 10 8 8 8 7 6 6 5 5 4 4 4 4 3 3 5 6 7 10 10 7 4 3 2 3 5 4 3 2 2 3 4 4 4 4 5 5 4 4 4 4 4 4 3 5 6 7 8 9 9 8 8 7 6 5 4 4 5 6 7 9 8 4 4 3 3 6 7 5 4 6 9 11 13 15 16 17 17 17 16 15 14
12 14 15 14 12 11 10 9 8 7 7 6 5 4 3 5 6 5 4 5 6 8 9 6 3 3 3 3 4 3 3 3 3 4 4 4 4 5 6 6 6 6 6 6 5 5 4 4 6 7 9 10 10 10 8 7 6 5 4 4 4 6 7 9 9 4 4 3 4 7 7 6 5 6 10 12 13 15 15 16 16 16 14 14 14
13 15 17 16 16 15 14 13 11 11 10 8 8 7 5 5 5 6 4 4 5 6 8 7 4 4 5 6 5 4 4 6 6 5 5 4 4 5 6 7 7 7 7 7 7 6 5 5 6 8 10 11 11 10 8 7 6 5 4 3 4 6 7 9 8 5 5 5 5 8 7 6 7 7 10 12 13 14 15 15 14 14 14 13 14
15 18 18 17 16 15 14 14 13 12 11 10 10 10 8 5 2 4 3 3 4 4 8 9 6 5 5 6 6 5 5 7 8 7 6 5 5 5 7 7 7 7 9 9 9 8 7 6 6 7 9 11 11 9 7 8 7 5 4 4 5 6 8 8 7 6 7 4 6 8 8 7 8 9 10 11 14 14 14 15 14 14 13 13 13
17 19 18 16 15 14 14 12 12 12 11 11 10 9 9 6 5 4 2 3 4 4 7 9 6 3 4 4 5 6 7 8 9 8 8 6 6 7 8 8 8 9 10 11 10 10 9 9 8 7 7 9 10 8 7 9 8 6 5 5 6 7 8 8 8 7 8 5 6 9 9 8 8 10 10 11 13 14 14 14 14 14 13 12 12
17 18 16 15 14 13 13 12 11 11 11 12 11 9 9 8 8 5 4 4 2 2 6 7 6 4 4 5 6 8 9 8 9 9 9 7 7 9 9 10 10 10 11 12 12 11 12 13 11 10 9 10 14 13 10 10 7 6 6 6 8 9 8 8 8 8 9 7 7 9 10 9 9 10 11 12 12 13 14 13 13 13 12 12 12
16 16 15 14 14 13 12 11 11 11 11 11 11 10 10 10 9 7 6 4 1 2 3 4 6 6 5 5 7 9 10 9 8 9 10 9 9 10 10 10 10 10 11 13 13 13 15 16 12 12 14 16 18 15 12 10 7 7 6 6 9 11 9 9 8 10 10 8 9 10 11 10 9 9 11 12 12 12 12 13 13 12 12 12 13
16 15 14 13 13 12 11 11 11 11 12 12 11 11 11 11 11 10 7 4 4 4 2 2 4 7 6 6 7 8 10 10 9 9 10 8 10 13 12 11 11 11 13 14 15 15 15 16 14 14 17 17 15 12 11 11 9 9 8 7 10 12 10 10 10 11 11 8 10 11 12 11 10 9 11 12 12 12 12 12 12 12 13 12 12
14 13 13 13 12 10 10 10 11 12 12 12 13 13 13 12 11 11 9 8 7 4 3 3 3 6 6 6 7 8 9 10 11 10 10 9 11 14 14 13 12 13 14 16 17 16 17 19 18 17 16 14 13 13 12 10 11 10 9 9 10 10 10 11 12 11 13 8 9 12 12 11 10 9 11 12 12 12 12 12 12 13 13 13 13
13 12 12 11 10 9 9 9 10 12 13 14 14 14 14 12 11 9 9 9 7 6 6 4 2 5 6 6 7 7 8 9 11 11 11 12 12 14 14 14 13 14 16 17 17 18 23 25 21 17 15 12 11 13 12 10 10 10 9 9 10 10 9 11 12 10 14 9 8 11 12 12 11 10 10 11 11 11 11 11 12 13 13 14 13
12 11 11 10 9 8 8 9 10 12 14 15 15 16 15 12 11 7 7 8 6 5 6 5 5 5 3 5 7 7 8 9 11 11 12 13 12 13 14 14 14 16 17 17 16 17 21 22 18 14 14 12 8 10 11 10 9 9 8 8 9 8 9 11 11 9 13 9 8 11 12 12 12 11 10 11 11 11 11 11 12 12 13 13 13
12 11 10 8 7 7 8 9 12 13 14 15 16 17 17 14 11 8 6 6 5 5 5 6 7 4 2 5 7 8 9 9 10 11 11 12 12 13 14 15 15 16 17 17 17 17 18 17 15 14 14 13 8 8 11 10 9 9 7 7 8 7 9 12 11 9 12 9 8 11 11 12 13 13 11 11 11 11 12 12 12 13 13 13 13
10 9 8 7 6 6 9 12 14 14 15 16 17 18 20 18 14 12 8 5 5 4 4 4 5 4 2 4 6 8 8 9 10 11 11 11 12 13 14 16 17 17 16 18 17 16 17 16 15 16 16 12 8 9 10 9 7 7 8 8 7 7 8 11 11 9 11 10 9 10 11 12 13 13 13 12 12 12 12 12 13 13 13 13 13
9 8 7 6 6 8 11 13 15 15 16 18 19 20 21 20 17 14 11 6 5 4 3 2 3 4 2 2 5 8 7 7 8 10 10 10 11 12 13 15 18 19 18 18 18 17 17 17 16 17 16 13 9 10 10 7 4 4 7 7 7 8 8 10 12 10 8 11 10 11 11 11 12 13 13 14 14 13 12 12 13 13 13 13 14
8 7 6 6 7 10 11 13 15 16 18 19 20 20 20 20 16 13 11 7 4 5 5 4 4 6 4 3 7 9 8 5 6 8 9 10 11 11 12 14 16 19 19 18 20 19 17 17 17 17 16 13 13 12 10 6 5 6 7 6 6 9 9 10 12 10 7 11 10 11 11 9 10 12 13 15 15 15 14 13 13 13 13 14 14
7 6 6 6 8 10 11 13 15 16 17 19 20 19 18 18 15 11 12 8 6 7 8 7 4 5 5 6 8 9 10 7 5 7 8 8 9 10 11 12 14 16 18 19 20 19 17 17 17 16 15 14 14 13 10 6 5 6 7 7 6 8 10 10 12 12 8 10 11 10 11 10 9 10 11 14 16 16 15 14 13 13 13 14 14
7 6 5 6 8 9 11 13 14 15 17 18 20 19 18 18 14 11 12 9 7 7 6 6 4 5 7 8 8 8 10 9 8 9 9 8 8 8 9 11 13 14 16 17 18 18 17 18 17 15 14 15 14 12 10 8 7 6 5 8 8 7 10 11 13 13 11 9 10 10 11 12 11 10 9 11 14 16 16 15 14 14 14 15 15
7 6 5 6 7 8 10 12 14 16 16 16 19 20 19 20 15 11 12 9 8 7 4 5 6 7 8 9 9 9 8 7 9 10 10 11 10 9 9 9 11 13 14 15 16 16 16 17 17 15 14 15 15 12 10 9 8 8 5 6 9 8 9 12 14 15 13 11 9 10 12 12 13 12 11 11 12 14 16 16 16 15 15 15 16
6 5 5 6 6 6 8 10 13 15 16 16 19 21 20 21 16 12 13 11 9 8 4 4 5 7 9 10 9 9 9 8 9 9 10 12 12 11 10 10 10 11 13 14 14 16 16 16 16 16 15 15 15 11 11 10 8 7 6 5 8 8 9 12 14 16 16 13 11 10 13 14 13 13 13 14 12 12 14 16 16 16 16 16 16
6 5 5 7 6 4 5 9 11 14 17 17 19 21 19 20 17 13 13 10 10 8 6 5 6 9 10 10 8 8 8 8 9 9 9 11 12 13 13 12 11 11 12 13 14 14 15 16 17 17 16 15 15 12 11 12 11 8 7 8 9 9 10 12 13 15 16 15 13 12 11 13 14 13 14 15 14 13 13 14 16 17 17 17 17
6 5 5 5 5 5 5 8 8 10 16 18 19 20 19 19 18 15 12 9 9 8 7 7 8 9 8 7 6 7 9 8 6 7 8 10 12 13 14 15 14 13 13 13 13 13 14 14 15 17 17 16 15 14 13 12 12 10 8 9 10 10 12 13 13 14 16 17 15 14 12 12 13 13 13 15 15 14 13 13 14 16 17 18 18
6 4 5 5 3 2 2 5 7 8 13 17 19 19 20 20 19 17 12 9 8 7 6 5 7 7 7 7 6 7 9 7 5 5 7 9 10 10 12 14 14 15 15 13 13 12 12 13 13 15 16 17 16 15 14 12 12 11 9 8 8 10 12 13 14 14 16 18 17 17 16 14 13 13 13 14 15 15 15 14 14 15 16 17 18
7 5 6 5 4 2 3 2 5 8 11 15 18 19 20 20 19 18 13 9 9 8 7 6 7 7 7 8 8 9 8 6 7 7 7 7 8 9 11 12 13 14 15 15 14 12 12 12 13 13 14 16 15 15 14 13 13 13 11 9 8 9 9 10 12 13 15 18 19 19 18 17 16 15 15 15 15 15 15 16 15 15 17 16 17
8 8 8 5 6 6 3 1 2 6 10 13 16 17 20 20 19 19 16 12 12 11 10 10 9 8 8 9 9 11 10 7 6 7 7 7 7 10 13 13 14 14 15 15 16 14 12 12 13 14 14 14 14 15 15 14 12 12 12 11 9 8 8 9 9 10 13 16 19 19 19 19 18 18 18 17 16 15 16 17 16 16 18 18 17
10 10 10 8 7 6 4 1 0 5 8 12 15 16 19 20 19 20 18 14 15 13 13 13 10 11 12 11 10 11 11 7 6 7 8 7 7 11 14 14 13 14 15 16 17 15 12 12 14 15 15 15 14 15 16 14 12 12 14 15 13 10 10 9 8 8 10 13 17 19 20 20 20 19 19 19 18 17 17 18 17 17 19 20 19
11 11 11 10 8 7 6 2 2 2 6 10 13 14 17 19 19 21 18 14 15 15 15 13 9 10 11 12 12 11 12 9 7 8 8 6 7 12 14 13 12 13 14 16 17 15 12 11 13 15 15 15 14 15 15 15 14 13 14 16 17 16 15 14 11 8 7 8 12 16 19 20 21 21 20 19 19 19 19 18 18 18 20 21 21
12 12 13 11 9 9 7 3 3 3 4 9 11 13 17 18 18 20 19 15 16 16 15 13 11 11 11 11 11 10 12 11 9 9 7 5 7 12 14 12 12 13 14 14 13 12 12 12 14 15 15 14 14 15 15 14 14 14 13 14 16 16 17 18 16 12 9 8 10 12 15 18 21 23 23 22 20 20 20 20 20 21 21 22 23
13 14 13 12 10 9 8 6 4 3 4 8 10 12 15 16 16 20 19 15 17 17 14 14 14 13 12 11 10 10 10 11 10 9 7 6 8 13 14 12 11 12 12 12 10 10 12 14 15 15 16 14 13 15 15 14 14 14 14 14 16 16 17 18 18 18 16 14 14 14 14 15 19 23 24 24 23 22 22 21 22 22 21 22 24
13 14 13 11 11 10 9 8 4 3 5 7 9 10 13 14 16 18 18 15 17 18 15 15 14 13 13 10 9 9 8 10 12 10 9 8 10 13 14 13 12 11 12 12 10 10 12 13 14 15 15 14 13 14 15 15 15 15 16 16 16 16 17 17 18 19 19 19 18 17 16 15 17 19 21 23 24 24 23 22 22 22 22 22 23
13 15 14 12 12 10 10 9 5 5 6 7 8 9 10 13 15 15 16 15 17 19 17 15 14 13 12 10 11 12 9 9 10 8 8 10 12 14 15 14 13 12 12 12 10 10 12 12 13 14 14 14 13 14 15 15 15 14 15 17 17 17 18 18 17 16 17 20 20 20 20 19 19 18 18 20 23 24 25 24 23 23 23 23 23
Wind_Direction
98 100 96 98 100 93 93 97 101 101 98 94 91 86 84 85 83 78 72 68 61 53 48 48 47 49 54 55 54 49 39 38 36 35 39 46 60 73 83 83 80 83 80 73 63 59 54 54 61 71 80 81 81 85 89 92 94 94 92 89 84 80 76 77 79 82 86 88 91 98 101 100 103 104 101 98 95 91 93 102 105 103 96 92 90
93 94 91 91 92 92 97 100 105 110 109 104 100 94 90 91 93 89 80 70 62 52 43 37 36 37 34 29 24 22 19 37 47 52 62 70 78 81 87 88 87 88 80 73 65 66 63 63 70 78 84 83 88 93 94 96 96 94 93 92 88 84 83 84 86 85 84 84 84 87 94 99 102 105 107 104 102 97 95 103 106 102 94 89 85
95 91 92 96 97 100 103 107 113 116 114 111 108 103 98 96 95 89 82 74 66 58 50 42 34 28 18 7 353 358 14 50 71 76 79 80 83 84 88 91 91 91 87 83 74 72 71 72 75 82 91 92 97 100 97 95 95 96 95 93 92 92 90 89 89 86 84 84 82 78 78 88 101 106 111 109 105 101 99 103 102 96 91 87 84
101 99 99 101 103 105 107 111 114 113 114 114 114 112 108 101 93 86 81 76 71 66 60 53 43 36 25 15 8 19 50 83 91 89 85 84 85 86 89 93 93 93 94 91 84 80 80 80 82 89 95 100 104 103 98 96 98 99 100 100 100 101 98 93 86 82 80 81 83 77 69 72 92 105 114 114 111 107 103 104 101 96 94 93 94
96 97 98 100 102 104 106 109 108 110 115 114 114 114 109 100 91 84 78 72 68 66 65 61 56 54 49 39 42 64 92 103 100 94 92 92 91 91 92 96 95 94 96 93 89 86 88 88 88 93 96 101 104 103 99 100 102 104 106 107 108 108 103 94 84 80 76 79 85 79 70 72 84 105 122 122 117 112 106 102 101 101 99 100 104
95 94 96 98 98 100 104 108 109 111 114 112 113 110 105 98 92 86 76 69 62 62 67 71 66 65 64 53 67 89 99 104 104 101 101 102 100 99 101 102 100 99 96 92 90 89 93 96 97 99 100 104 104 103 104 106 107 108 111 114 115 112 105 95 84 79 73 77 90 87 81 84 87 102 121 123 118 110 105 102 104 106 104 107 110
102 100 98 99 99 101 100 100 103 107 110 108 111 109 104 98 93 87 77 70 64 64 64 74 74 70 68 66 83 94 99 103 106 109 109 111 110 109 110 108 106 103 98 92 91 96 100 106 109 108 109 110 107 106 108 111 113 114 116 120 121 115 106 94 83 76 67 72 89 95 93 91 88 94 106 114 113 107 104 106 110 111 109 111 114
103 102 101 102 103 103 100 98 101 106 107 103 104 102 99 95 92 85 75 68 67 70 62 68 76 72 72 75 87 93 100 109 110 114 116 118 117 113 112 111 111 107 102 97 96 101 103 111 117 116 116 113 111 109 112 116 118 120 122 129 130 122 106 92 88 76 56 59 80 88 94 100 98 93 95 103 106 106 108 113 114 113 112 113 117
102 101 101 104 106 104 101 102 106 112 114 112 109 104 96 89 87 82 74 65 62 63 60 64 73 73 77 79 89 97 105 114 114 118 124 124 121 118 120 119 116 111 107 103 102 103 99 102 105 104 104 105 109 110 114 116 117 119 121 129 130 123 107 96 94 83 68 69 86 84 91 111 112 100 95 103 110 112 115 118 118 118 118 119 121
105 103 104 104 104 102 101 103 108 115 116 117 113 106 98 89 84 79 69 61 53 47 45 58 75 74 79 87 94 104 106 109 116 118 124 126 127 129 132 132 126 117 112 110 111 111 104 102 102 100 98 100 106 111 114 114 115 115 116 118 120 119 109 96 87 87 98 102 90 85 95 113 113 108 107 108 117 121 122 123 122 124 124 124 123
109 109 108 104 101 100 99 101 102 105 106 104 98 92 89 88 85 80 73 63 55 48 37 43 74 80 77 92 97 103 103 101 107 110 117 127 135 138 139 142 136 130 125 118 120 129 126 115 109 107 104 107 112 117 119 119 119 117 116 115 119 119 110 97 86 92 117 109 100 100 99 112 110 111 118 117 124 128 128 128 125 127 127 126 123
105 106 108 106 104 103 102 103 102 102 101 98 91 87 84 82 78 74 70 60 53 54 50 42 67 85 74 83 94 108 113 110 112 120 128 131 141 146 145 143 140 138 135 126 128 147 148 127 119 116 112 117 123 127 127 125 124 121 120 117 118 116 110 99 91 109 141 127 116 109 102 112 115 111 121 126 131 133 131 131 128 129 129 127 124
96 98 104 108 108 108 108 106 103 102 103 104 93 82 78 74 70 64 57 50 44 43 52 53 72 96 86 68 86 115 139 137 131 136 137 133 135 140 150 151 149 149 144 137 138 156 164 146 134 126 117 120 126 131 131 130 127 126 126 121 118 114 114 104 95 130 146 138 124 108 110 115 120 113 120 132 134 136 133 131 130 132 132 128 126
97 99 103 106 104 103 105 104 105 105 104 103 90 78 78 77 67 54 45 43 44 40 42 57 93 108 104 76 78 116 177 202 150 148 145 128 118 111 130 152 156 160 160 157 159 167 175 167 150 136 122 122 125 129 131 132 131 132 131 127 126 119 119 109 102 169 143 145 146 110 109 111 120 119 122 133 135 136 133 131 132 134 134 131 130
107 107 110 113 109 105 105 99 101 107 105 100 86 77 77 76 65 47 38 38 42 41 46 69 128 140 99 65 24 103 193 236 188 176 163 137 123 99 79 98 150 166 171 178 187 187 189 181 165 147 133 131 127 126 128 132 132 134 135 133 135 123 120 109 102 179 223 144 168 126 113 107 118 123 126 133 135 137 134 133 134 135 136 135 133
114 109 111 115 114 117 118 108 105 110 110 105 85 73 70 68 65 51 40 36 37 39 53 68 85 127 50 326 286 254 290 259 230 204 169 153 151 112 77 71 110 171 178 183 193 199 200 192 178 164 149 143 132 126 126 131 133 135 136 133 140 127 127 120 105 134 211 185 207 170 139 112 112 122 129 134 137 140 137 136 136 138 138 138 136
113 110 111 108 105 111 115 112 109 106 107 109 99 87 66 56 58 54 45 39 32 28 51 68 67 65 50 11 354 289 296 320 243 227 187 166 162 131 99 63 39 194 187 183 192 196 199 196 185 179 165 156 149 138 130 132 138 142 142 133 139 133 136 132 112 113 187 222 219 180 153 119 109 119 132 139 141 141 139 139 139 140 140 140 137
104 107 108 102 101 98 101 109 102 76 70 55 60 91 50 22 16 32 40 41 37 27 27 52 61 51 46 32 18 19 344 254 221 229 226 202 189 173 154 61 5 342 261 197 196 197 196 193 188 186 181 172 164 152 139 137 146 151 148 140 141 140 140 133 114 117 202 227 232 184 158 127 113 118 133 142 145 143 143 142 141 142 143 141 138
101 104 106 104 106 100 96 100 85 53 47 4 3 330 313 327 322 334 5 24 31 34 27 23 43 48 45 34 12 17 33 94 201 220 235 237 225 208 185 195 293 324 308 245 211 207 203 195 190 191 191 185 172 162 153 151 158 158 155 156 151 141 143 135 121 143 204 244 264 194 165 139 120 122 134 142 147 146 146 146 143 145 146 143 140
101 99 100 103 100 94 87 69 60 56 58 29 13 335 301 302 301 311 331 354 6 22 34 27 32 46 49 32 355 352 4 9 197 215 233 247 244 233 222 213 223 274 296 289 249 222 217 207 198 196 198 191 178 173 170 172 174 172 171 169 159 147 145 144 143 172 201 242 266 201 170 149 128 126 137 143 147 147 148 150 147 148 149 145 143
100 103 95 93 92 86 81 71 67 59 52 51 39 21 349 314 299 303 302 317 331 340 10 30 25 33 47 14 332 325 337 338 290 226 241 255 253 249 249 240 227 251 277 285 281 255 229 220 210 203 200 192 184 183 186 190 188 185 184 177 170 159 145 144 153 182 203 232 258 205 175 153 138 134 143 148 149 149 151 152 151 151 152 148 144
97 108 107 105 105 95 91 89 84 78 66 60 46 25 23 17 358 332 297 298 305 315 345 14 7 4 41 353 303 300 326 323 309 252 254 272 264 259 260 258 248 248 259 270 282 289 263 232 221 207 201 194 190 191 193 196 196 196 190 181 174 159 145 141 149 183 199 230 264 198 175 157 149 146 151 154 153 153 154 155 155 154 153 149 145
96 109 112 110 109 103 98 92 87 89 83 69 48 27 35 42 14 353 332 314 299 304 332 351 343 338 343 325 291 296 315 293 292 276 272 282 264 258 267 273 271 259 253 258 268 283 277 243 226 212 204 198 197 198 198 201 201 200 198 188 172 154 143 140 142 173 206 250 257 195 177 163 152 155 158 159 157 156 158 159 159 157 155 152 146
101 104 105 102 100 97 91 84 78 74 74 69 55 42 43 52 12 338 337 326 313 314 319 319 344 357 339 341 330 305 285 275 280 281 287 290 260 249 265 278 279 273 261 255 258 261 262 244 228 216 208 203 203 203 201 205 204 197 199 189 175 161 148 144 143 175 221 243 227 194 180 166 155 160 164 164 163 160 160 162 161 159 158 153 148
105 101 99 95 90 86 79 73 67 61 61 59 56 46 36 49 11 326 341 326 319 326 316 318 348 359 330 338 332 300 271 271 271 269 277 283 278 259 257 266 269 272 266 260 257 249 246 238 227 219 214 209 205 209 213 214 209 196 192 175 169 163 154 145 141 184 223 224 202 192 183 174 162 164 169 168 169 166 162 161 161 163 161 155 153
106 100 96 90 84 78 70 62 57 51 46 44 47 38 25 30 19 357 18 330 314 338 327 322 339 340 299 293 287 272 255 259 263 265 267 266 286 283 265 264 263 265 266 265 257 245 244 237 224 218 219 221 225 239 234 213 206 199 189 176 170 165 163 146 143 197 229 226 205 195 187 183 170 168 171 167 170 174 170 166 165 166 165 161 160
105 98 91 85 78 70 63 55 49 43 38 37 37 27 16 19 19 9 0 347 329 349 325 320 326 318 294 277 266 256 244 239 250 266 273 273 296 297 281 269 261 261 263 263 256 246 244 239 225 219 223 229 239 247 237 212 199 198 190 177 170 166 169 148 151 215 237 235 222 199 195 191 176 173 173 167 168 174 175 175 174 172 171 170 168
104 96 88 81 72 64 55 47 42 39 35 34 33 23 13 12 13 2 348 350 312 297 300 319 324 313 304 286 270 259 253 245 240 255 269 280 299 296 283 270 262 261 260 259 258 249 246 244 230 219 222 225 232 234 227 216 197 194 192 184 176 169 172 148 156 226 241 239 227 201 200 197 181 180 177 173 170 172 174 175 177 177 177 177 175
103 95 86 80 69 60 49 39 34 35 34 33 31 22 17 11 5 359 353 347 325 317 340 10 316 297 297 290 280 269 268 266 249 246 259 272 286 283 276 266 262 263 260 257 257 252 249 246 231 219 221 222 228 222 213 211 197 193 194 194 186 174 177 148 151 227 247 241 224 201 202 201 187 187 184 179 174 174 175 174 176 177 179 179 179
102 96 88 80 69 56 41 34 29 30 30 29 27 20 18 11 7 5 354 350 347 349 16 18 329 292 283 277 284 279 275 274 263 252 254 258 264 268 265 259 261 266 265 260 254 250 251 248 237 233 231 220 218 218 212 206 200 196 192 200 198 184 185 153 146 223 250 239 214 199 202 202 192 193 190 184 178 178 178 177 178 178 181 182 179
107 100 90 79 67 52 36 32 27 27 25 23 23 19 16 10 14 12 347 349 10 11 353 350 303 274 272 270 277 285 284 279 273 262 256 256 255 258 257 255 259 263 262 262 253 246 255 255 244 241 243 228 212 214 211 202 202 200 192 199 205 195 189 157 145 213 246 240 211 201 204 202 194 197 194 189 186 184 186 183 182 180 182 183 182
116 104 91 78 62 48 38 34 29 28 22 16 16 16 17 14 14 14 346 348 26 23 341 323 293 265 273 299 282 278 288 285 280 272 263 261 259 259 259 257 257 256 258 263 255 247 258 262 255 247 244 239 220 212 209 199 206 210 196 196 203 205 189 157 144 205 240 242 215 206 208 203 193 195 195 194 195 192 194 193 189 186 183 183 184
116 104 92 78 64 51 39 35 32 29 20 13 10 10 15 19 16 9 347 345 33 33 340 328 326 312 346 335 302 278 282 284 281 276 270 265 263 263 264 262 260 258 260 263 256 249 258 264 265 261 250 241 224 215 214 202 214 223 215 208 210 216 189 159 147 199 239 246 224 214 209 204 194 193 195 196 201 199 197 199 198 195 190 188 187
117 105 94 81 70 52 37 35 33 27 17 12 8 6 11 16 16 8 358 6 33 18 331 332 343 331 333 354 326 291 280 284 280 274 272 269 265 264 263 262 262 262 262 262 256 252 260 264 264 264 264 259 232 222 225 209 212 230 230 224 217 214 193 169 156 182 233 244 230 222 210 205 200 196 197 196 202 204 200 202 204 202 197 194 192
121 105 96 86 68 46 37 35 30 24 17 14 11 8 9 11 14 8 5 21 20 342 314 311 315 305 297 340 316 290 273 282 287 280 276 276 273 266 263 260 258 259 257 258 259 257 263 269 269 267 272 276 259 246 244 228 218 226 227 223 216 213 197 182 170 169 226 246 234 223 215 209 204 203 204 199 200 204 203 205 208 207 203 200 200
116 106 102 86 62 45 36 33 27 23 19 17 16 12 9 9 11 8 5 18 38 12 340 329 347 341 330 291 288 285 271 273 299 298 287 283 279 271 268 263 260 260 256 255 259 260 264 268 270 271 274 275 271 265 257 239 217 212 215 213 213 219 208 189 177 166 213 251 245 224 219 220 210 207 212 206 202 202 202 206 212 212 209 208 209
121 119 108 79 61 48 37 33 29 24 20 17 16 14 10 9 11 10 8 15 57 44 344 325 358 341 314 287 286 285 273 263 281 300 296 290 286 279 275 268 263 263 259 256 259 263 267 266 265 270 275 274 272 272 267 257 234 218 212 212 215 223 221 204 184 173 188 239 253 233 218 229 225 216 220 213 205 204 203 203 211 215 215 216 216
135 129 115 85 70 56 44 39 34 28 24 18 16 17 12 13 18 9 8 19 49 46 340 322 346 316 298 292 293 290 279 272 270 280 285 285 286 283 283 279 270 266 265 262 261 265 267 268 266 265 270 272 271 270 266 261 252 243 224 219 223 226 224 215 201 191 182 203 245 248 224 226 230 226 228 219 208 208 208 205 207 212 217 221 222
140 135 130 103 81 61 51 45 40 34 29 23 19 20 15 16 23 9 10 26 33 29 358 345 347 323 306 292 290 289 288 291 280 274 277 278 279 279 280 284 278 274 274 269 266 268 267 266 266 263 263 267 269 270 267 265 258 252 244 219 220 228 228 218 211 206 194 189 216 244 236 226 225 224 226 225 220 213 211 211 210 211 214 220 224
152 152 135 105 87 67 53 45 44 37 33 29 21 21 18 18 20 14 18 21 17 20 16 3 331 301 292 285 286 285 287 303 298 284 281 279 277 279 278 280 283 283 280 273 270 273 273 269 266 266 262 260 264 267 263 264 263 251 241 220 216 234 241 226 216 210 204 196 194 215 238 237 225 220 222 225 229 221 213 216 217 216 216 217 222
176 172 133 117 124 103 55 43 44 37 33 30 23 22 21 20 17 21 27 12 4 9 1 350 319 299 296 290 291 300 300 304 308 303 298 295 290 286 281 277 280 285 285 280 278 278 279 276 270 267 263 259 261 263 260 259 262 254 238 235 230 233 242 238 231 221 212 207 195 196 226 245 237 224 222 225 230 228 219 218 220 222 222 222 222
197 180 142 145 137 106 59 48 47 37 34 29 26 25 21 20 16 20 24 5 5 4 352 349 327 315 318 314 309 314 303 289 308 327 321 318 309 299 291 283 278 280 286 286 286 286 282 281 278 270 265 262 263 263 261 258 256 251 235 237 238 236 242 244 243 235 221 213 206 200 204 233 250 238 227 226 228 229 227 223 222 225 227 228 228
216 192 172 184 132 79 9 48 51 41 34 27 26 25 21 22 19 18 15 2 4 344 322 326 315 309 311 309 299 301 299 286 297 314 318 317 305 305 305 293 281 275 277 280 284 290 289 288 286 278 270 265 266 266 263 255 247 241 230 224 226 235 244 244 245 245 233 222 217 213 206 213 235 238 234 235 232 229 230 229 225 225 228 230 231
225 213 199 187 141 190 266 46 47 37 33 26 25 23 20 22 19 17 16 5 356 336 318 306 298 304 298 288 282 287 295 297 302 296 300 308 296 304 309 296 286 277 276 278 278 284 291 291 288 284 278 270 269 270 265 253 238 231 227 218 208 217 234 242 248 251 242 232 227 225 219 214 218 222 227 239 240 233 232 232 227 224 227 231 231
220 220 222 204 172 205 232 79 34 27 30 23 23 21 17 20 18 16 19 8 355 348 338 327 320 329 320 301 297 300 298 296 315 310 299 304 300 305 305 295 290 281 276 277 274 272 277 287 291 289 282 274 270 270 266 259 245 233 228 220 207 206 216 225 240 248 240 234 232 230 228 223 224 224 221 226 234 235 239 241 237 226 226 233 234
222 226 232 220 192 212 235 144 36 3 18 18 19 19 15 16 15 15 19 8 356 349 336 333 339 342 332 321 323 328 326 319 324 320 301 301 309 304 300 299 300 291 280 275 269 266 268 277 288 290 287 281 274 269 267 266 259 249 239 232 229 224 218 220 230 242 240 234 233 232 231 228 229 232 228 224 225 227 235 245 247 236 232 237 235
227 227 229 225 198 206 235 199 176 309 359 12 13 15 14 13 11 13 19 8 353 344 333 335 342 337 332 330 332 340 344 335 322 320 306 298 308 300 295 298 306 304 295 282 268 265 269 271 277 285 289 284 278 275 270 264 259 255 248 241 239 237 234 233 233 236 242 240 238 236 234 233 233 235 236 233 228 225 226 234 243 241 238 240 239
230 229 226 227 207 203 223 208 193 248 342 8 9 9 10 11 8 12 20 8 348 342 337 341 342 332 329 330 333 343 348 338 327 327 316 310 312 300 295 300 305 309 309 295 270 262 269 267 268 277 285 283 280 281 274 264 261 259 253 245 244 245 243 239 235 235 244 254 258 253 244 241 240 238 239 239 235 230 227 227 233 240 240 240 240
224 229 230 233 220 208 212 213 214 241 319 358 8 5 6 10 4 7 18 9 348 345 343 341 339 333 331 333 334 341 343 338 339 335 321 322 315 297 293 302 310 315 320 311 280 266 273 273 273 278 286 288 283 280 277 271 267 262 258 252 245 244 245 241 235 237 246 253 259 261 255 248 247 244 242 242 241 237 236 231 231 236 240 243 244
219 222 227 236 230 213 209 219 217 218 280 331 0 2 3 6 0 1 12 8 349 346 343 337 336 333 331 334 336 339 337 337 344 342 331 329 314 301 299 304 312 319 326 325 306 286 282 281 284 285 287 291 287 280 280 279 274 266 261 258 251 245 243 241 236 239 247 251 253 255 254 253 256 252 245 243 244 243 242 239 236 236 237 241 245
217 220 221 228 231 217 209 220 219 215 255 304 346 358 358 358 359 359 3 5 352 345 344 339 338 337 335 340 342 339 335 335 338 338 340 336 318 310 309 307 311 317 319 322 322 312 298 288 289 293 292 295 294 286 282 281 280 274 265 260 257 249 243 241 241 243 249 251 251 252 255 258 261 262 254 246 244 244 244 242 241 240 238 238 240